Terminal Aerodrome Forecast
Issued by NWS Pittsburgh, PA

Current Version | Previous Version | Graphics & Text | Print | Product List | Glossary On
Versions: 1 2 3 4 5 6 7 8 9 10 11 12 13 14 15 16 17 18 19 20 21 22 23 24 25 26 27 28 29 30 31 32 33 34
724
FTUS41 KPBZ 021122
TAFPIT
TAF
KPIT 021122Z 0212/0318 21005KT P6SM BKN025
      TEMPO 0212/0213 BKN005
     FM021500 28012KT P6SM SCT025
     FM021800 30011KT P6SM SCT040
     FM030000 35005KT P6SM BKN060=

USA.gov is the U.S. government's official web portal to all federal, state and local government web resources and services.